Location: Cisewo
(53.3833°N, 14.9000°E)
Time: 11:27:49
(UTC+00:00)

Cosmos 1766 Rocket - Pass Details

Date: 18 April 2021
Orbit: 604 x 633 km, 82.5° (Epoch: 14 May)

Event Time Altitude Azimuth Distance (km) Brightness Sun altitude
Rises 20:55:37 0° 345° (NNW) 2,876 8.3 -20.3°
Reaches altitude 10° 20:57:52 10° 341° (NNW) 1,967 7.3 -20.5°
Maximum altitude 21:02:05 52° 265° (W) 759 4.1 -20.8°
Enters shadow 21:03:30 36° 211° (SSW) 973 4.3 -20.9°
